Weather in Verkhnetambovskoye

Russia / Khabarovsk Krai     50°40′03″N   137°24′03″E
temp.,
°C
wind,
m/s
gust,
m/s
humid.,
%
clouds,
%
prec.,
mm/h
press.,
hPa
HPBL,
m
27 february, sat
sat2701:00−19s1299100 0.1 103123
04:00−19sse2298100 0.2 103137
07:00−20sse2598100 0.1 1032113
10:00−18s41092100 0.2 1030574
13:00−15s4988100 0.1 1028624
16:00−13s41086100 0.1 1025696
19:00−14s4129297 0.1 1024480
22:00−13sse3108999 0.2 1020460
28 february, sun
sun2801:00−12s41392100 0.7 1016590
04:00−12ssw41492100 2.1 1012683
07:00−12ssw31291100 0.0 1012553
10:00−11ssw2590100 0.1 1011335
13:00−8ssw248592 0.0 1011436
16:00−7sw248596 0.1 1012460
19:00−9nw388177 0.0 1015267
22:00−16wnw238082 0.0 101860
1 march, mon
mon101:00−19nw388044 0.0 1020219
04:00−20nnw238128 0.0 102256
07:00−23wsw118629 0.0 102420
10:00−19s249165 0.1 1025499
13:00−16ssw3584100 0.1 1024748
16:00−16sw4583100 0.2 1024747
19:00−20wsw238765 0.1 102621
22:00−22n257640 0.1 102797
2 march, tue
tue201:00−24wnw118133 0.0 102720
04:00−26ene118551 0.0 102920
07:00−26ese119899 0.0 103019
10:00−22s239396 0.0 1029285
13:00−18ssw237894 0.0 1028687
16:00−17ssw237784 0.0 1028572
19:00−22ssw229047 0.0 102920
22:00−25ssw119523 0.0 103120
3 march, wed
wed301:00−26sse12960 0.0 103020
04:00−27se119919 0.0 102920
07:00−27sse129998 0.0 102821
10:00−23s369499 0.1 1026403
13:00−19s498699 0.0 1023674
16:00−15ssw6137999 0.1 1019726
19:00−16s31482100 0.0 1018577
22:00−16s31282100 0.0 1016529